All
Trulson Fld Airport (Plaza, ND) Y99 Weather
There is no TAF data available at Y99 or any nearby airports.
There is no METAR data available at Y99. Showing METAR data for 08D (28 mi W).
Recent 08D METAR history (no data for Y99)
| Date | Time (CDT) | Flight Rules | Wind Dir. | Speed | Type | Height AGL (ft) | Visibility | Temp (°C) | Temp (°F) | Dew Point (°C) | Dew Point (°F) | Rel. Humid. | Pressure | Density Altitude | Remarks |
|---|---|---|---|---|---|---|---|---|---|---|---|---|---|---|---|
| 04-Sep | 12:55AM | VFR | Calm | 5 miles |
15° | 59° | 15° | 59° | 100% | 29.91 in Hg | 2,734 ft | Mist | |||
| 04-Sep | 12:35AM | BCAT1 | Calm | 0.25 miles |
14° | 57° | 14° | 57° | 100% | 29.91 in Hg | 2,614 ft | Fog | |||
| 04-Sep | 12:15AM | VFR | 140° | 3 kt | 10 miles | 15° | 59° | 15° | 59° | 100% | 29.91 in Hg | 2,734 ft | |||
| 03-Sep | 11:55PM | VFR | 100° | 4 kt | 10 miles | 16° | 60° | 16° | 60° | 100% | 29.89 in Hg | 2,874 ft | |||
| 03-Sep | 11:35PM | VFR | 70° | 4 kt | 10 miles | 16° | 60° | 16° | 60° | 100% | 29.89 in Hg | 2,874 ft | |||
| 03-Sep | 11:15PM | VFR | 90° | 4 kt | 10 miles | 16° | 60° | 16° | 60° | 100% | 29.90 in Hg | 2,864 ft | |||
| 03-Sep | 10:55PM | VFR | 80° | 5 kt | 10 miles | 16° | 60° | 16° | 60° | 100% | 29.90 in Hg | 2,864 ft | |||
| 03-Sep | 10:35PM | VFR | 90° | 6 kt | 10 miles | 17° | 62° | 17° | 62° | 100% | 29.90 in Hg | 2,984 ft | |||
| 03-Sep | 10:15PM | VFR | 90° | 6 kt | 10 miles | 17° | 62° | 17° | 62° | 100% | 29.89 in Hg | 2,994 ft | |||
| 03-Sep | 09:55PM | VFR | 80° | 6 kt | 10 miles | 17° | 62° | 17° | 62° | 100% | 29.88 in Hg | 3,004 ft | |||
| 03-Sep | 09:35PM | VFR | 90° | 6 kt | 10 miles | 18° | 64° | 18° | 64° | 100% | 29.88 in Hg | 3,124 ft | |||
| 03-Sep | 09:15PM | VFR | 80° | 7 kt | 10 miles | 18° | 64° | 18° | 64° | 100% | 29.87 in Hg | 3,134 ft | |||
| 03-Sep | 08:55PM | VFR | 100° | 7 kt | 10 miles | 19° | 66° | 18° | 64° | 94% | 29.86 in Hg | 3,264 ft | |||
| 03-Sep | 08:35PM | VFR | 90° | 7 kt | 10 miles | 20° | 68° | 18° | 64° | 88% | 29.85 in Hg | 3,394 ft | Wind gusting to 12 KT | ||
| 03-Sep | 08:15PM | VFR | 90° | 6 kt | 10 miles | 21° | 69° | 17° | 62° | 78% | 29.84 in Hg | 3,524 ft | |||
| 03-Sep | 07:55PM | VFR | 100° | 9 kt | 10 miles | 22° | 71° | 17° | 62° | 73% | 29.84 in Hg | 3,644 ft | |||
| 03-Sep | 07:35PM | VFR | 80° | 7 kt | 10 miles | 23° | 73° | 17° | 62° | 69% | 29.83 in Hg | 3,774 ft | |||
| 03-Sep | 07:15PM | VFR | 80° | 5 kt | 10 miles | 23° | 73° | 17° | 62° | 69% | 29.83 in Hg | 3,774 ft | |||
| 03-Sep | 06:55PM | VFR | 60° | 4 kt | 10 miles | 24° | 75° | 17° | 62° | 65% | 29.82 in Hg | 3,904 ft | |||
| 03-Sep | 06:35PM | VFR | 130° | 6 kt | 10 miles | 24° | 75° | 17° | 62° | 65% | 29.82 in Hg | 3,904 ft | |||
| 03-Sep | 06:15PM | VFR | Calm | 10 miles | 24° | 75° | 16° | 60° | 61% | 29.81 in Hg | 3,914 ft | ||||
| 03-Sep | 05:55PM | VFR | Calm | 10 miles | 24° | 75° | 16° | 60° | 61% | 29.81 in Hg | 3,914 ft | ||||
| 03-Sep | 05:35PM | VFR | 80° | 3 kt | 10 miles | 24° | 75° | 17° | 62° | 65% | 29.80 in Hg | 3,924 ft | Wind gusting to 10 KT | ||
| 03-Sep | 05:15PM | VFR | Calm | 10 miles | 24° | 75° | 16° | 60° | 61% | 29.80 in Hg | 3,924 ft |
Login
| Your browser is unsupported. upgrade your browser |
